Showing default

DB-GLOBE MISSION EARTH-U, 68459

Orbit data source: Space-Track

DB-GLOBE MISSION EARTH-U, 68459 is a payload satellite owned by NearSpaceLaunch (US) in SSO that was launched on Mon, 30 Mar 2026 UTC via an FALCON 9 launch vehicle from the Air Force Western Test Range (AFWTR). Payload-class satellites include a variety of spacecraft equipped with specific instruments for various scientific and technological missions. These include communications satellites like Starlink; space stations such as the ISS; scientific satellites like the Hubble; Earth observation satellites from companies like Planet Labs, Umbra, and HawkEye 360; GPS; miniature CubeSats for education and research; and military/defense satellites.

Loading next visibility...
Identifier
68459, 2026-067AV
Orbit
SSO
Country
Flag of USUS
Related business
Manufacturer
NearSpaceLaunch
Mission
Operational spacecraft
Bus & Motor
THINSAT 0.5U, Unknown motor
Mass
0.5 kg wet, 0.5 kg dry
Launch date (UTC)
2026-03-30 (3 months ago)
Launch vehicle
FALCON 9
Launch site
Air Force Western Test Range (AFWTR)
Object type
Payload
Rocket body
Debris
Shape & HBR
Unknown shape, 0.1 m
Radar Cross Section
Medium (>0.1 m² and <1 m²)

Expand to show TLE details & history
Last TLE update: 2 days ago

TLE from 2 days ago
0 DB-GLOBE MISSION EARTH-U
1 68459U 26067AV  26171.42348038  .00005180  00000-0  26166-3 0  9990
2 68459  97.4536 129.7073 0007724  63.8692 296.3335 15.17490135 12427
Epoch: 2026-06-20T10:09Z
TLE epoch observation values (Epoch: 2026-06-20T10:09:48.704Z)
Latitude
-0.00009°
Longitude
68.61606°
Altitude
514.156 km
Speed
7.608 km/s
True Right ascension
08h 38m 49s
True Declination
0° 00' 00"
Sunlit
Object was in daylight at epoch
Visualization orbit readout
Latitude
Unknown
Longitude
Unknown
Altitude
Unknown
Speed
Unknown
Apparent Right ascension
Unknown
Apparent Declination
Unknown
Sunlit
N/A
Visualization observer readout
Local Sidereal Time
16:33:22
Azimuth
Unknown
Elevation
Unknown
Doppler factor
Unknown
Orbital elements
Apogee altitude
515.721 km
Perigee altitude
505.08 km
Semi-major axis
6,888.537 km
Eccentricity
0.00077
Inclination
97.4536°
RAAN
129.7073°
Arg. of periapsis
63.8692°
True anomaly
296.25414°
Mean anomaly
296.3335°
Eccentric anomaly
296.29382°
Mean motion
3.79623 °/min
Orbital period
94.83 mins
BSTAR
0.00026166
Loading maneuver chart data...
Computing Atmospheric mass density...
Loading historical data...
Loading historical data...
Loading historical data...
Loading historical data...
Loading historical data...
Loading historical data...
Loading historical data...

Documentation

Showing up to 5 results
|